Home   Weather   Kūh-e Pak Malī   Past weeks
Flag for Iran

Past Weather in Kūh-e Pak Malī, Iran — Yesterday and Last 2 Weeks

Now
50 °F

Clear.


Feels Like: 48 °F
Forecast: 62 / 50 °F
Wind: 5 mph from Southeast

Location: Ghazvin

Current Time: Oct 21, 2019 at 11:52:46 pm

Latest Report: Oct 21, 2019 at 11:30 pm


Visibility: 10 mi

Pressure: 30.18 "Hg

Humidity: 88%

Dew Point: 46 °F

Location of Kūh-e Pak MalīLocation

Past Weather in Kūh-e Pak Malī — Graph

°F

Kūh-e Pak Malī Temperature Yesterday

Maximum temperature yesterday: 64 °F (at 9:30 am)
Minimum temperature yesterday: 50 °F (at 11:30 pm)
Average temperature yesterday: 58 °F

High & Low Weather Summary for the Past Weeks

 TemperatureHumidityPressure
High88 °F (Oct 9, 3:30 pm)94% (Oct 21, 2:30 am)30.42 "Hg (Oct 21, 2:30 am)
Low45 °F (Oct 21, 5:30 am)9% (Oct 9, 3:30 pm)29.89 "Hg (Oct 6, 10:30 pm)
Average65 °F41%30.19 "Hg
* Reported Oct 6 10:30 pm — Oct 21 10:30 pm, Kūh-e Pak Malī. Weather by CustomWeather, © 2019

Note: Actual official high and low records may vary slightly from our data, if they occured in-between our weather recording intervals... More about our weather records

Advertising

Kūh-e Pak Malī Weather History for the Previous 24 Hours

Scroll right to see more
 ConditionsComfort  
Time TempWeatherWind HumidityBarometerVisibility
10:30 pm
Mon, Oct 21
50 °FClear.7 mph82%30.15 "Hg10 mi
8:30 pm54 °FClear.2 mph77%30.15 "Hg10 mi
7:30 pm55 °FClear.2 mph72%30.15 "Hg10 mi
6:30 pm61 °FClear.2 mph59%30.12 "Hg10 mi
5:30 pm63 °FPartly sunny.2 mph56%30.12 "HgN/A
4:30 pm68 °FPassing clouds.7 mph46%30.12 "HgN/A
3:30 pm72 °FPassing clouds.2 mph38%30.12 "HgN/A
2:30 pm72 °FPassing clouds.5 mph38%30.12 "HgN/A
1:30 pm72 °FPassing clouds.2 mph38%30.15 "Hg5 mi
12:30 pm68 °FPassing clouds.5 mph43%30.18 "Hg5 mi
11:30 am68 °FPassing clouds.2 mph46%30.18 "Hg5 mi
10:30 am66 °FClear.5 mph49%30.21 "Hg4 mi
9:30 am63 °FClear.5 mph59%30.21 "Hg4 mi
8:30 am57 °FClear.2 mph67%30.21 "Hg4 mi
7:30 am52 °FClear.2 mph88%30.18 "Hg4 mi
6:30 am45 °FClear.2 mph93%30.18 "Hg10 mi
5:30 am45 °FClear.2 mph93%30.18 "Hg10 mi
4:30 am46 °FClear.2 mph93%30.18 "Hg10 mi
2:30 am48 °FClear.2 mph94%30.18 "Hg10 mi
1:30 am46 °FClear.No wind93%30.18 "Hg10 mi
11:30 pm
Sun, Oct 20
50 °FClear.2 mph88%30.21 "Hg10 mi
Weather by CustomWeather, © 2019

See weather overview